UAL155 PKWA-PKMJ

Flight info

Callsign UAL155
Flight time 0h 44m
Altitude 29000
Route CURCH WOZTI
Aircraft B738/M-SDE2E3FGHIRWXY/LB1

Departure

Time 2026-04-23 03:35
Airport Bucholz Army Air Field (PKWA)

Arrival

Time 2026-04-23 04:19
Airport Marshall Islands International Airport (PKMJ)
Time Latitude Longitude Altitude Speed Heading
2026-04-23 03:21 8.72730 167.74029 9 ft 0 kts 27°
2026-04-23 03:27 8.72716 167.74020 19 ft 2 kts 34°
2026-04-23 03:28 8.72709 167.74014 20 ft 2 kts 40°
2026-04-23 03:28 8.72698 167.74003 9 ft 2 kts 53°
2026-04-23 03:28 8.72690 167.73989 11 ft 2 kts 77°
2026-04-23 03:28 8.72690 167.73974 13 ft 0 kts 128°
2026-04-23 03:30 8.72685 167.73979 11 ft 5 kts 140°
2026-04-23 03:30 8.72638 167.73975 9 ft 9 kts 207°
2026-04-23 03:31 8.72565 167.73939 9 ft 14 kts 203°
2026-04-23 03:31 8.72455 167.73942 9 ft 18 kts 169°
2026-04-23 03:31 8.72347 167.73867 8 ft 22 kts 243°
2026-04-23 03:31 8.72296 167.73706 9 ft 26 kts 253°
2026-04-23 03:32 8.72241 167.73524 9 ft 27 kts 253°
2026-04-23 03:32 8.72185 167.73348 9 ft 26 kts 252°
2026-04-23 03:32 8.72135 167.73184 10 ft 24 kts 253°
2026-04-23 03:32 8.72088 167.73029 9 ft 23 kts 253°
2026-04-23 03:33 8.72046 167.72878 9 ft 22 kts 254°
2026-04-23 03:33 8.72005 167.72728 7 ft 21 kts 255°
2026-04-23 03:33 8.71952 167.72593 8 ft 21 kts 249°
2026-04-23 03:33 8.71911 167.72455 8 ft 20 kts 254°
2026-04-23 03:34 8.71872 167.72321 9 ft 20 kts 243°
2026-04-23 03:34 8.71769 167.72313 7 ft 19 kts 106°
2026-04-23 03:34 8.71792 167.72457 6 ft 36 kts 72°
2026-04-23 03:34 8.71960 167.72993 6 ft 122 kts 72°
2026-04-23 03:35 8.72247 167.74013 288 ft 169 kts 74°
2026-04-23 03:35 8.72481 167.75195 1366 ft 168 kts 82°
2026-04-23 03:35 8.72405 167.76344 2532 ft 166 kts 106°
2026-04-23 03:35 8.71811 167.77416 3171 ft 186 kts 121°
2026-04-23 03:36 8.71035 167.78502 3870 ft 194 kts 121°
2026-04-23 03:36 8.70227 167.79639 4466 ft 205 kts 121°
2026-04-23 03:36 8.69477 167.80945 4767 ft 230 kts 116°
2026-04-23 03:36 8.68665 167.82457 5057 ft 257 kts 116°
2026-04-23 03:37 8.67810 167.84088 5758 ft 265 kts 115°
2026-04-23 03:37 8.66959 167.85752 6615 ft 268 kts 115°
2026-04-23 03:37 8.66115 167.87440 7463 ft 270 kts 114°
2026-04-23 03:37 8.65273 167.89150 8275 ft 275 kts 114°
2026-04-23 03:38 8.64429 167.90891 9125 ft 277 kts 114°
2026-04-23 03:38 8.63579 167.92662 9885 ft 282 kts 114°
2026-04-23 03:38 8.62708 167.94487 10346 ft 299 kts 114°
2026-04-23 03:38 8.61775 167.96453 10672 ft 318 kts 114°
2026-04-23 03:39 8.60807 167.98496 11287 ft 324 kts 114°
2026-04-23 03:39 8.59829 168.00561 12011 ft 328 kts 114°
2026-04-23 03:39 8.58852 168.02626 12693 ft 332 kts 114°
2026-04-23 03:39 8.57834 168.04782 13364 ft 337 kts 114°
2026-04-23 03:40 8.56835 168.06898 14067 ft 339 kts 114°
2026-04-23 03:40 8.55808 168.09075 14726 ft 342 kts 114°
2026-04-23 03:40 8.54771 168.11273 15205 ft 350 kts 114°
2026-04-23 03:40 8.53716 168.13511 15782 ft 354 kts 114°
2026-04-23 03:41 8.52665 168.15738 16390 ft 358 kts 114°
2026-04-23 03:41 8.51588 168.18019 16982 ft 362 kts 115°
2026-04-23 03:41 8.50495 168.20335 17507 ft 368 kts 115°
2026-04-23 03:41 8.49385 168.22687 18048 ft 373 kts 115°
2026-04-23 03:42 8.48263 168.25062 18565 ft 376 kts 115°
2026-04-23 03:42 8.47132 168.27458 19075 ft 379 kts 115°
2026-04-23 03:42 8.45991 168.29874 19570 ft 383 kts 115°
2026-04-23 03:42 8.44839 168.32313 20061 ft 386 kts 115°
2026-04-23 03:43 8.43679 168.34771 20551 ft 390 kts 115°
2026-04-23 03:43 8.42506 168.37253 21027 ft 393 kts 115°
2026-04-23 03:43 8.41323 168.39757 21504 ft 396 kts 115°
2026-04-23 03:43 8.40132 168.42278 21977 ft 400 kts 116°
2026-04-23 03:44 8.38928 168.44825 22439 ft 403 kts 116°
2026-04-23 03:44 8.37715 168.47390 22888 ft 407 kts 116°
2026-04-23 03:44 8.36492 168.49978 23357 ft 409 kts 116°
2026-04-23 03:44 8.35262 168.52582 23734 ft 413 kts 116°
2026-04-23 03:45 8.34022 168.55205 24093 ft 416 kts 116°
2026-04-23 03:45 8.32775 168.57845 24489 ft 417 kts 116°
2026-04-23 03:45 8.31521 168.60497 24888 ft 419 kts 116°
2026-04-23 03:45 8.30260 168.63162 25238 ft 422 kts 116°
2026-04-23 03:46 8.28990 168.65845 25588 ft 425 kts 116°
2026-04-23 03:46 8.27728 168.68550 26006 ft 426 kts 115°
2026-04-23 03:46 8.26497 168.71215 26523 ft 424 kts 115°
2026-04-23 03:46 8.25241 168.73943 27023 ft 423 kts 115°
2026-04-23 03:47 8.24020 168.76600 27492 ft 422 kts 115°
2026-04-23 03:47 8.22786 168.79282 28047 ft 420 kts 115°
2026-04-23 03:47 8.21556 168.81952 28539 ft 420 kts 115°
2026-04-23 03:47 8.20326 168.84622 28856 ft 419 kts 115°
2026-04-23 03:48 8.17867 168.89951 28871 ft 419 kts 115°
2026-04-23 03:48 8.15403 168.95286 28883 ft 420 kts 115°
2026-04-23 03:49 8.12933 169.00632 28880 ft 420 kts 116°
2026-04-23 03:49 8.10466 169.05969 28870 ft 420 kts 115°
2026-04-23 03:50 8.08000 169.11306 28867 ft 419 kts 115°
2026-04-23 03:50 8.05542 169.16637 28879 ft 419 kts 115°
2026-04-23 03:51 8.03078 169.21966 28863 ft 419 kts 115°
2026-04-23 03:51 8.00616 169.27284 28872 ft 418 kts 115°
2026-04-23 03:52 7.98151 169.32606 28869 ft 419 kts 115°
2026-04-23 03:52 7.95683 169.37934 28869 ft 420 kts 115°
2026-04-23 03:53 7.93208 169.43273 28859 ft 417 kts 115°
2026-04-23 03:53 7.91996 169.45888 28812 ft 406 kts 115°
2026-04-23 03:53 7.90806 169.48454 28511 ft 401 kts 115°
2026-04-23 03:54 7.89632 169.50987 28162 ft 398 kts 115°
2026-04-23 03:54 7.88464 169.53503 27792 ft 395 kts 115°
2026-04-23 03:54 7.87305 169.56001 27432 ft 392 kts 115°
2026-04-23 03:54 7.86153 169.58484 27068 ft 390 kts 115°
2026-04-23 03:55 7.85007 169.60954 26695 ft 388 kts 115°
2026-04-23 03:55 7.83868 169.63407 26331 ft 386 kts 115°
2026-04-23 03:55 7.82747 169.65821 25973 ft 384 kts 115°
2026-04-23 03:55 7.81616 169.68256 25594 ft 383 kts 115°
2026-04-23 03:56 7.80487 169.70688 25225 ft 382 kts 115°
2026-04-23 03:56 7.79361 169.73110 24840 ft 381 kts 115°
2026-04-23 03:56 7.78239 169.75525 24467 ft 380 kts 115°
2026-04-23 03:56 7.77119 169.77937 24099 ft 380 kts 115°
2026-04-23 03:57 7.75999 169.80345 23730 ft 379 kts 115°
2026-04-23 03:57 7.74883 169.82746 23343 ft 378 kts 115°
2026-04-23 03:57 7.73769 169.85143 22923 ft 376 kts 115°
2026-04-23 03:57 7.72661 169.87524 22546 ft 374 kts 115°
2026-04-23 03:58 7.71563 169.89885 22182 ft 371 kts 115°
2026-04-23 03:58 7.70470 169.92234 21820 ft 369 kts 115°
2026-04-23 03:58 7.69385 169.94566 21459 ft 366 kts 115°
2026-04-23 03:58 7.68308 169.96880 21104 ft 364 kts 115°
2026-04-23 03:59 7.67237 169.99182 20757 ft 361 kts 115°
2026-04-23 03:59 7.66175 170.01463 20408 ft 359 kts 115°
2026-04-23 03:59 7.65115 170.03740 20064 ft 357 kts 115°
2026-04-23 03:59 7.64074 170.05974 19940 ft 347 kts 114°
2026-04-23 04:00 7.63038 170.08200 19429 ft 351 kts 114°
2026-04-23 04:00 7.62000 170.10428 19036 ft 352 kts 114°
2026-04-23 04:00 7.60963 170.12655 18703 ft 350 kts 114°
2026-04-23 04:00 7.60279 170.14122 18454 ft 349 kts 114°
2026-04-23 04:01 7.59250 170.16331 18157 ft 346 kts 114°
2026-04-23 04:01 7.58245 170.18484 18050 ft 335 kts 114°
2026-04-23 04:01 7.57240 170.20642 17468 ft 341 kts 114°
2026-04-23 04:01 7.56232 170.22805 17045 ft 341 kts 113°
2026-04-23 04:02 7.55229 170.24954 16706 ft 338 kts 113°
2026-04-23 04:02 7.54235 170.27087 16361 ft 335 kts 114°
2026-04-23 04:02 7.53245 170.29208 16023 ft 333 kts 114°
2026-04-23 04:02 7.52265 170.31310 15699 ft 330 kts 113°
2026-04-23 04:03 7.51291 170.33397 15369 ft 328 kts 113°
2026-04-23 04:03 7.50323 170.35471 15045 ft 326 kts 113°
2026-04-23 04:03 7.49362 170.37532 14722 ft 324 kts 113°
2026-04-23 04:03 7.48406 170.39580 14398 ft 322 kts 113°
2026-04-23 04:04 7.47455 170.41617 14079 ft 320 kts 112°
2026-04-23 04:04 7.46510 170.43640 13760 ft 318 kts 112°
2026-04-23 04:04 7.45571 170.45653 13423 ft 317 kts 113°
2026-04-23 04:04 7.44634 170.47659 13064 ft 315 kts 112°
2026-04-23 04:05 7.43706 170.49647 12734 ft 313 kts 113°
2026-04-23 04:05 7.42783 170.51622 12421 ft 310 kts 113°
2026-04-23 04:05 7.41879 170.53556 12107 ft 308 kts 113°
2026-04-23 04:05 7.40972 170.55497 11794 ft 305 kts 113°
2026-04-23 04:06 7.40072 170.57424 11482 ft 303 kts 113°
2026-04-23 04:06 7.39179 170.59336 11184 ft 300 kts 113°
2026-04-23 04:06 7.38292 170.61234 10879 ft 298 kts 113°
2026-04-23 04:06 7.37411 170.63117 10583 ft 296 kts 114°
2026-04-23 04:07 7.36536 170.64989 10284 ft 294 kts 113°
2026-04-23 04:07 7.35669 170.66843 10067 ft 289 kts 114°
2026-04-23 04:07 7.34825 170.68647 9947 ft 281 kts 113°
2026-04-23 04:07 7.34000 170.70411 9713 ft 278 kts 114°
2026-04-23 04:08 7.33180 170.72164 9413 ft 276 kts 114°
2026-04-23 04:08 7.32367 170.73903 9131 ft 273 kts 113°
2026-04-23 04:08 7.31562 170.75626 8859 ft 271 kts 113°
2026-04-23 04:08 7.30761 170.77338 8583 ft 269 kts 113°
2026-04-23 04:09 7.29966 170.79037 8310 ft 267 kts 113°
2026-04-23 04:09 7.29178 170.80720 8040 ft 265 kts 113°
2026-04-23 04:09 7.28379 170.82384 7775 ft 264 kts 117°
2026-04-23 04:09 7.27232 170.83792 7714 ft 257 kts 131°
2026-04-23 04:10 7.25969 170.85082 7383 ft 259 kts 131°
2026-04-23 04:10 7.24709 170.86363 7121 ft 257 kts 131°
2026-04-23 04:10 7.23455 170.87643 6861 ft 256 kts 131°
2026-04-23 04:10 7.22209 170.88920 6598 ft 255 kts 131°
2026-04-23 04:11 7.20973 170.90192 6341 ft 254 kts 131°
2026-04-23 04:11 7.19742 170.91461 6067 ft 253 kts 131°
2026-04-23 04:11 7.18511 170.92731 5794 ft 253 kts 131°
2026-04-23 04:11 7.17283 170.94000 5528 ft 253 kts 130°
2026-04-23 04:12 7.16062 170.95263 5267 ft 251 kts 130°
2026-04-23 04:12 7.14844 170.96523 5009 ft 251 kts 130°
2026-04-23 04:12 7.13631 170.97777 4748 ft 249 kts 130°
2026-04-23 04:12 7.12423 170.99027 4493 ft 249 kts 131°
2026-04-23 04:13 7.11217 171.00275 4219 ft 248 kts 130°
2026-04-23 04:13 7.10013 171.01519 3962 ft 248 kts 130°
2026-04-23 04:13 7.08837 171.02735 3834 ft 242 kts 130°
2026-04-23 04:13 7.07680 171.03940 3712 ft 236 kts 130°
2026-04-23 04:14 7.06575 171.05138 3599 ft 230 kts 129°
2026-04-23 04:14 7.05507 171.06303 3566 ft 223 kts 128°
2026-04-23 04:14 7.04468 171.07434 3478 ft 217 kts 128°
2026-04-23 04:14 7.03460 171.08530 3361 ft 210 kts 128°
2026-04-23 04:15 7.02671 171.09712 3095 ft 199 kts 101°
2026-04-23 04:15 7.02745 171.11039 2923 ft 186 kts 78°
2026-04-23 04:15 7.03155 171.13524 2498 ft 171 kts 77°
2026-04-23 04:16 7.03426 171.14657 2330 ft 165 kts 76°
2026-04-23 04:16 7.03694 171.15756 2101 ft 158 kts 75°
2026-04-23 04:16 7.03951 171.16801 1889 ft 151 kts 76°
2026-04-23 04:16 7.04197 171.17806 1727 ft 145 kts 76°
2026-04-23 04:17 7.04437 171.18782 1504 ft 144 kts 77°
2026-04-23 04:17 7.04675 171.19755 1302 ft 143 kts 77°
2026-04-23 04:17 7.04914 171.20746 1044 ft 148 kts 77°
2026-04-23 04:17 7.05147 171.21743 781 ft 144 kts 76°
2026-04-23 04:18 7.05383 171.22701 626 ft 139 kts 76°
2026-04-23 04:18 7.05617 171.23642 460 ft 138 kts 75°
2026-04-23 04:18 7.05869 171.24583 284 ft 138 kts 78°
2026-04-23 04:18 7.06091 171.25524 149 ft 139 kts 78°
2026-04-23 04:19 7.06329 171.26479 10 ft 140 kts 77°
2026-04-23 04:19 7.06533 171.27336 3 ft 110 kts 76°
2026-04-23 04:19 7.06678 171.27922 3 ft 33 kts 75°
2026-04-23 04:19 7.06758 171.28088 5 ft 14 kts
2026-04-23 04:20 7.06811 171.28070 6 ft 0 kts 321°
2026-04-23 04:21 7.06822 171.28073 6 ft 5 kts 32°
2026-04-23 04:21 7.06847 171.28137 7 ft 14 kts 72°
2026-04-23 04:21 7.06852 171.28192 6 ft 0 kts 113°